www.pogodaiklimat.ru

Погода и климат >> Архив погоды >> Россия >> Камчатский край >> Мыс Лопатка


ПОГОДА на Мысе Лопатка

  • Прогноз погоды на Мысе Лопатка
  • Монитор погоды на Мысе Лопатка
  • Климат города

АРХИВ ПОГОДЫ на Мысе Лопатка

Время (UTC), дата Ветер
(напр.,м/с)
 
Видим.   Явления Облачность Т
(С)
Тd
(С)
f
(%)
Тe
(С)
Тes
(С)
Комфортность P
(гПа)
Po
(гПа)
Тmin
(С)
Tmax
(С)
R
(мм)
R24
(мм)
S
(см)
15 23.04 С 5 4000 м слабый ливневой снег 10/10 300 м
[Cb cap]
-0.5 -0.7 99 -7 -7 1013.4 1007.0
18 23.04 В 11-13
{17}
20 км {ливн. осадки} 10/3 600 м
[Sc Ac trans Ci fib]
-0.3 -0.7 97 -9 -9 1013.6 1007.2
21 23.04 В 5
{13}
50 км 1/0
[Ci fib]
+0.3 -2.4 82 -6 -4 1015.5 1009.1 -0.9 0.9 3
00 24.04 С 6 50 км 1/0
[Ci fib]
+1.8 -0.3 86 -4 +1 1015.8 1009.4
03 24.04 СЗ 7 50 км 8/1 600 м
[Sc Ac trans Ci fib]
+2.2 -1.1 79 -4 -2 1015.7 1009.4
06 24.04 СЗ 7 50 км 8/3 600 м
[Sc Ac As Ci fib]
+2.2 -0.3 84 -4 -4 1015.9 1009.6
09 24.04 СЗ 8-10
{10}
50 км 9/9 600 м
[Sc]
+1.0 -0.7 88 -6 -6 1016.5 1010.1 +3.2
12 24.04 СЗ 10-12
{13}
20 км 9/9 600 м
[Sc]
+0.2 -0.9 92 -8 -8 1017.0 1010.6
15 24.04 СЗ 11-14
{14}
20 км 1/1 600 м
[Sc]
-0.5 -1.9 90 -9 -9 1016.7 1010.3
18 24.04 СЗ 12-15
{15}
20 км 9/9 600 м
[Sc]
0.0 -2.5 83 -9 -9 1016.8 1010.4
21 24.04 СЗ 12-16
{16}
20 км 9/9 600 м
[Sc]
+0.1 -3.2 78 -9 -9 1016.2 1009.8 -0.7
00 25.04 СЗ 13-16
{18}
20 км 9/9 600 м
[Sc]
+0.1 -2.4 83 -9 -9 1015.7 1009.3
03 25.04 СЗ 13-16
{17}
20 км 9/9 600 м
[Sc]
+0.8 -1.5 85 -8 -8 1015.0 1008.6
06 25.04 СЗ 13-15
{16}
20 км 9/9 600 м
[Sc]
+0.6 -2.4 80 -8 -8 1014.7 1008.3
09 25.04 СЗ 13-17
{18}
20 км 9/9 600 м
[Sc]
+0.4 -1.6 86 -9 -9 1014.6 1008.2 +1.1
12 25.04 СЗ 12-15
{18}
20 км 9/9 600 м
[Sc]
+0.2 -2.4 83 -8 -8 1014.8 1008.4
15 25.04 СЗ 14-17
{19}
20 км 9/9 600 м
[Sc]
+0.1 -1.7 88 -9 -9 1014.0 1007.6
18 25.04 СЗ 13-16
{17}
20 км 9/9 600 м
[Sc]
+0.6 -0.8 90 -8 -8 1014.1 1007.7
21 25.04 СЗ 13-15
{17}
50 км 9/9 600 м
[Sc]
+0.6 -1.7 85 -8 -8 1013.8 1007.4 -0.2
00 26.04 З 12-15
{17}
50 км 9/9 600 м
[Sc]
+1.2 -0.6 88 -7 -7 1013.1 1006.7
03 26.04 З 12-15
{17}
20 км 8/8 600 м
[Sc]
+0.5 -1.1 89 -8 -8 1012.2 1005.8
06 26.04 З 10-12
{15}
20 км 9/9 600 м
[Sc]
0.0 -1.7 88 -8 -8 1011.7 1005.3
09 26.04 СЗ 6
{12}
20 км 10/10 600 м
[Sc]
-0.7 -1.9 92 -8 -8 1010.7 1004.4 +1.4
12 26.04 штиль 0 20 км 10/10 600 м
[Sc]
-1.0 -2.2 92 -2 -2 1009.9 1003.6
15 26.04 Ю 4 20 км 10/10 600 м
[Sc]
0.0 -1.6 89 -6 -6 1008.3 1002.0
18 26.04 Ю 6 4000 м слабый ливневой снег 10/10 300 м
[Cb cap]
-0.1 -0.8 95 -7 -7 1006.7 1000.4
21 26.04 ЮВ 7 4000 м слабый снег {ливн. осадки} 10/10 200 м
[Frnb Ns]
+0.4 +0.1 98 -7 -7 1005.6 999.3 -1.2 0.1 <0.5
00 27.04 В 9-11
{11}
500 м ?/? +1.0 +0.9 99 -7 -7 1004.1 997.8
03 27.04 В 11-15
{15}
4000 м дымка {морось, туман} 10/10 200 м
[St]
+1.0 +0.9 99 -7 -7 1002.0 995.7
06 27.04 В 14-18
{18}
4000 м дымка {морось, туман} 10/10 200 м
[St]
+0.7 +0.5 99 -9 -9 999.3 993.1
09 27.04 В 15-20
{20}
20 км в посл. час морось 10/10 300 м
[St]
+0.6 +0.3 98 -9 -9 995.8 989.6 +1.1
12 27.04 В 11-16
{22}
20 км {морось} 10/10 300 м
[St]
+0.7 -0.4 92 -8 -8 991.3 985.1
15 27.04 З 7-10
{16}
4000 м слабый ливневой снег 10/10 300 м
[Cb cap]
+0.4 -0.3 95 -7 -7 987.4 981.2
18 27.04 СЗ 14-17
{17}
20 км {ливн. осадки} 9/1 600 м
[Sc Ac As]
+0.1 -0.6 95 -9 -9 983.2 977.0
21 27.04 СЗ 13-16
{19}
20 км 8/8 600 м
[Sc Ac trans]
+0.7 -0.3 93 -8 -8 981.5 975.3 -0.1 0.3
00 28.04 З 15-18
{18}
20 км 10/10 300 м
[Sc]
+0.7 -0.7 90 -9 -9 981.3 975.1
03 28.04 З 13-16
{18}
20 км {ливн. осадки} 9/9 300 м
[Sc]
+1.2 -0.3 90 -8 -8 980.9 974.8
06 28.04 З 13-16
{20}
4000 м слабый ливневой снег 10/10 300 м
[Cb cap]
+0.1 -0.3 97 -9 -9 980.4 974.3
09 28.04 З 15-19
{21}
10 км слабый ливневой снег 10/10 300 м
[Cb cap]
-0.3 -0.8 96 -10 -10 980.4 974.3 +1.5 0.4
12 28.04 З 16-21
{23}
4000 м слабый ливневой снег 10/10 300 м
[Cb cap]
+0.3 -0.5 94 -10 -10 980.5 974.4
15 28.04 З 15-20
{22}
20 км {ливн. осадки} 6/6 600 м
[Sc]
+0.5 -0.3 94 -9 -9 981.3 975.1
18 28.04 З 15-17
{20}
20 км {ливн. осадки} 10/10 600 м
[Sc]
+0.7 0.0 95 -9 -9 983.3 977.1
21 28.04 З 17-20
{20}
10 км слабый ливневой снег 10/10 300 м
[Cb cap]
+1.0 +0.2 94 -9 -9 985.8 979.6 -0.3 0.4
00 29.04 З 19-24
{24}
10 км слабый ливневой дождь со снегом 10/10 300 м
[Cb cap]
+1.2 +0.4 94 -9 -9 988.0 981.8
03 29.04 З 16-21
{24}
10 км {ливн. осадки} 10/10 300 м
[St]
+1.2 0.0 92 -8 -8 991.6 985.4
06 29.04 З 18-23
{23}
10 км слабый ливневой дождь со снегом 9/9 300 м
[Cb cap]
+1.0 +0.2 94 -9 -9 994.0 987.8
09 29.04 З 17-20
{23}
20 км {ливн. осадки} 10/10 300 м
[St]
+1.2 -0.4 89 -8 -8 998.0 991.8 +1.5 0.0
12 29.04 З 13-15
{20}
20 км {ливн. осадки} 10/10 300 м
[St]
+0.8 -0.1 94 -8 -8 1000.7 994.5
15 29.04 З 12-15
{16}
20 км 10/10 300 м
[St]
+0.7 -0.3 93 -8 -8 1002.3 996.0
18 29.04 З 11-14
{18}
20 км 9/9 300 м
[Sc]
+0.5 -0.5 93 -8 -8 1003.9 997.6
21 29.04 З 8-10
{18}
20 км 9/9 300 м
[Sc]
+1.1 -0.2 91 -6 -6 1005.7 999.4 +0.4
00 30.04 З 10-11
{12}
20 км 5/1 600 м
[Sc Ac trans Ci sp]
+2.2 +0.6 89 -5 -5 1006.6 1000.3
03 30.04 СЗ 8-10
{13}
20 км 9/9 600 м
[Sc]
+2.3 +0.7 89 -5 -4 1008.3 1002.1
06 30.04 СЗ 6
{13}
20 км 9/9 600 м
[Sc]
+2.0 +0.7 91 -4 -4 1009.1 1002.9
09 30.04 З 6 20 км 3/1 600 м
[Sc Ci fib]
+0.6 -0.4 93 -6 -6 1011.1 1004.8 +2.8

 

Местоположение метеостанции Мыс Лопатка (Камчатский край, Россия): широта 50.87 долгота 156.60 высота над уровнем моря 50 м.

В архиве по умолчанию представлена погода на Мысе Лопатка за последнюю неделю. Архивные данные за месяц целиком и за предыдущие месяцы, начиная с января 2011 года, Вы можете получить, выбрав интересующий диапазон дат из раскрывающегося списка и нажав кнопку "Ввод!".

Внимание! Время в таблицах - всемирное. Для получения местного времени необходимо прибавить поправку, которая на Мысе Лопатка равна 12 ч.

Смотрите также архив погоды в соседних городах и на ближайших метеорологических станциях:

Погода в Северо-Курильске (Сахалинская область, Россия) (41 км)
Погода в Озерной (Камчатский край, Россия) (69 км)
Погода в Водопадной (Камчатский край, Россия) (144 км)
Погода в Большерецке (Камчатский край, Россия) (219 км)
Погода в Начиках (Камчатский край, Россия) (261 км)
Погода в Петропавловск-Камчатском (Камчатский край, Россия) (261 км)
Погода в Петропавловском Маяке (Камчатский край, Россия) (266 км)
Погода в Сосновке (Камчатский край, Россия) (272 км)
Погода в Петропавловск-Камч. 2 (Камчатский край, Россия) (278 км)
Погода в Пущино (Камчатский край, Россия) (380 км)

Пояснения к столбцам:

Ветер - указаны скорость ветра в м/с - средняя за 10 мин, порывы в срок и между сроками (в фигурных скобках) и направление, откуда дует ветер: С - северный, СВ - северо-восточный, В - восточный, ЮВ - юго-восточный, Ю - южный, ЮЗ - юго-западный, З - западный, СЗ - северо-западный.
Видимость - горизонтальная дальность видимости в метрах или километрах. При видимости от 1 до 10 км при отсутствии осадков обычно наблюдается дымка, при ухудшении видимости до 1 км и менее - туман. В сухую погоду видимость может ухудшаться дымом, пылью или мглою.
Явления - указаны атмосферные явления, наблюдавшиеся в срок или в последний час перед сроком; фигурными скобками обозначены явления, наблюдавшиеся между сроками (за 1-3 часа до срока); квадратными скобками обозначены град или гололедные отложения с указанием их диаметра в мм.
Облачность - указаны через наклонную черту общая и нижняя облачность в баллах и высота нижней границы облаков в метрах; квадратными скобками обозначены формы облаков: Ci - перистые, Cs - перисто-слоистые, Cc - перисто-кучевые, Ac - высококучевые, As - высокослоистые, Sc - слоисто-кучевые, Ns - слоисто-дождевые, Cu - кучевые, Cb - кучево-дождевые. Подробнее классификацию облаков см. в Атласе облаков (PDF).
T - Температура воздуха - температура, измеренная на высоте 2 м над землей.
Td - Температура точки росы - температура, при понижении до которой содержащийся в воздухе водяной пар достигнет насыщения.
f - Относительная влажность воздуха - влажноcть воздуха, измеренная на высоте 2 м над землей.
Te - Эффективная температура - температура, которую ощущает одетый по сезону человек в тени. Характеристика душности погоды. При расчете учитывается влияние влажности воздуха и скорости ветра на теплоощущения человека.
Tes - Эффективная температура на солнце - температура, которую ощущает человек, с поправкой на солнечный нагрев. Характеристика знойности погоды. Зависит от высоты солнца над горизонтом, облачности и скорости ветра. Ночью, в пасмурную погоду, а также при ветре 12 м/с и более поправка равна нулю.
P - Атмосферное давление - приведенное к уровню моря атмосферное давление.
Po - Атмосферное давление - измеренное на уровне метеостанции атмосферное давление.
Tmin - Минимальная температура - минимум температуры воздуха на высоте 2 м над землей.
Tmax - Максимальная температура - максимум температуры воздуха на высоте 2 м над землей.
R - Количество осадков - Количество выпавших осадков за период времени, мм. При наведении курсора мыши на число - период времени, за который выпало указанное количество осадков.
R24 - Количество осадков - Количество выпавших осадков за 24 часа, мм.
S - Снежный покров - Высота снежного покрова, см. При наведении курсора мыши на число - состояние снежного покрова и степень покрытия местности в баллах.